Theta_e
304 304 304 306 309 311 312 312 313 312 310 309 310 312 312 312 313 312 311 311 310 309 309 309 309 309 309 310 313 314 314 316 317 317 321 323 322 319 315 316 316 313 314 313 312 314 316 317 316 317 314 312 313 314 314 314 316 317 318 321 318 326 335 332 333 337 338 339 338 338 339 341 340 339 338 338 339 339 341 338 334 331 330 331 332 332 333 335
305 304 304 306 308 311 313 313 313 313 311 309 310 311 312 312 312 311 311 310 310 309 309 310 309 310 309 311 314 314 316 320 321 321 321 319 318 317 314 314 314 314 314 314 314 314 315 316 315 315 313 312 313 314 314 315 316 317 320 322 319 328 336 333 334 333 336 339 338 337 338 338 338 337 337 340 340 338 342 338 333 334 332 330 332 333 334 334
305 304 304 305 308 311 314 314 313 313 311 309 309 310 311 311 311 311 311 310 310 310 310 310 310 310 310 311 314 315 319 324 327 326 319 316 316 314 314 314 314 314 313 314 313 313 313 315 314 315 314 312 314 314 314 316 317 318 319 322 324 330 333 332 333 332 334 335 336 335 333 334 335 335 337 340 341 339 341 337 333 336 336 332 332 332 333 334
306 305 304 304 307 311 315 315 314 313 312 310 309 310 311 311 311 311 311 311 311 311 310 310 310 311 311 312 314 316 321 325 325 323 315 314 315 314 315 314 314 314 314 313 313 313 313 313 314 315 314 312 313 312 314 316 316 317 318 322 328 332 333 333 332 332 332 332 333 333 331 334 336 337 337 339 342 342 340 337 334 334 334 333 332 331 332 333
307 305 304 304 306 311 315 316 314 314 312 311 310 310 311 311 311 311 311 312 311 312 311 311 311 311 311 312 316 317 320 321 318 316 314 314 315 314 314 313 314 314 313 313 312 313 313 314 315 316 314 312 313 313 315 315 316 323 323 325 328 330 333 333 331 332 332 331 332 332 332 335 336 338 337 338 343 341 335 333 332 331 331 332 331 331 332 332
308 306 305 304 306 311 316 317 315 314 312 311 309 310 311 311 311 312 312 312 312 312 311 311 310 311 311 312 319 320 319 320 316 314 315 314 314 314 314 313 314 314 313 314 313 313 315 316 317 318 315 313 314 314 315 315 319 328 328 328 328 328 332 331 330 331 331 332 334 333 335 336 337 337 335 336 338 334 329 328 329 330 331 331 331 332 332 333
309 307 305 304 305 311 316 318 317 315 312 310 309 310 312 311 311 312 312 313 313 312 311 311 311 311 312 314 320 325 324 324 319 316 315 314 315 314 314 314 313 314 314 313 312 314 316 317 318 318 315 314 315 314 317 321 324 328 329 329 329 328 329 329 329 330 330 332 331 332 336 338 339 337 334 334 333 329 327 328 328 330 331 331 331 332 332 332
311 309 306 305 305 309 315 318 318 317 313 310 310 310 312 312 312 312 312 313 313 312 312 311 311 311 313 317 321 327 330 328 321 317 315 314 314 314 314 314 315 315 314 314 315 316 316 318 319 318 315 315 317 318 320 324 326 328 328 328 329 328 328 329 329 329 330 330 331 335 339 338 337 335 333 333 332 328 328 329 329 331 331 331 332 332 331 330
312 311 308 306 304 308 314 317 318 319 317 312 311 311 312 312 312 312 313 313 313 312 312 311 311 311 315 320 323 327 329 323 318 316 314 314 315 315 315 315 317 316 316 317 316 316 317 319 318 316 316 317 320 322 321 324 325 326 327 327 328 329 328 329 330 331 331 330 333 337 339 338 335 334 334 332 332 330 329 330 330 331 332 332 332 332 332 331
313 312 310 307 305 306 313 317 317 319 319 315 312 312 313 312 312 313 313 313 313 312 312 312 311 312 316 321 325 328 325 317 316 315 314 315 315 316 317 316 317 317 317 317 315 317 319 318 316 315 315 317 321 322 322 324 325 326 327 327 328 330 329 329 329 331 332 331 333 338 338 337 334 336 338 333 332 332 331 332 332 332 332 331 331 332 332 331
314 314 312 310 306 305 310 315 317 318 319 318 315 313 312 313 313 313 313 313 313 312 312 312 311 313 317 321 325 327 322 315 316 315 315 316 316 317 316 317 317 316 316 316 315 316 317 316 314 315 316 317 321 323 323 324 325 326 326 328 329 330 329 328 330 330 332 331 331 333 335 335 337 339 338 334 332 332 332 333 332 332 332 331 331 332 331 331
315 314 314 312 309 305 307 313 317 317 319 319 318 316 314 314 314 314 314 314 315 315 314 313 312 314 318 323 326 326 318 316 317 316 317 316 316 317 317 317 316 316 316 315 316 316 317 316 315 316 316 318 322 323 322 323 325 325 326 328 328 330 330 327 330 330 331 333 329 330 334 339 345 342 335 334 333 332 333 333 331 331 332 331 331 331 331 330
315 315 315 314 311 308 305 310 316 317 318 319 319 319 318 318 318 318 318 318 319 318 318 316 314 314 319 325 326 322 316 317 317 316 317 317 317 317 317 317 316 317 317 315 316 317 317 316 316 316 316 321 323 321 323 324 324 323 324 328 328 333 335 328 328 329 329 332 327 330 340 343 344 341 334 333 333 332 334 333 332 332 331 331 331 331 331 329
314 315 315 314 313 310 305 308 315 317 317 318 319 319 319 318 319 318 319 319 319 320 320 318 316 317 322 326 322 318 318 317 316 317 317 317 317 317 317 317 317 317 316 317 316 317 317 316 316 316 318 323 323 323 329 329 329 327 325 333 337 332 333 335 333 329 328 329 327 333 344 344 341 340 335 332 332 333 335 333 332 332 330 330 330 330 330 329
314 314 315 315 314 312 307 307 313 316 317 317 319 318 319 319 319 318 317 317 318 319 319 318 318 320 326 328 321 317 318 316 316 317 316 317 317 316 317 317 317 317 316 317 316 317 317 316 316 316 317 322 326 332 335 335 337 334 325 333 341 331 329 340 337 330 329 329 326 330 338 338 338 338 335 331 331 335 335 333 332 331 330 330 329 329 329 328
314 314 314 315 315 314 309 306 311 316 317 317 318 318 318 318 319 318 317 316 318 318 318 319 320 322 327 328 321 317 317 316 317 317 316 317 316 316 317 316 317 317 316 316 316 316 316 316 317 317 318 324 330 336 338 339 341 340 329 330 337 331 329 334 331 328 330 328 326 328 333 336 338 336 333 332 332 335 336 333 332 332 331 331 330 331 330 330
314 314 314 315 315 315 311 307 309 315 316 316 317 317 318 318 318 318 316 317 319 320 319 320 320 322 326 326 321 318 317 317 316 317 317 316 316 317 316 316 316 316 315 316 316 316 316 316 316 316 320 324 328 336 336 332 334 338 332 328 333 332 329 329 327 327 327 327 328 328 331 336 338 335 332 332 332 334 335 333 334 334 333 333 333 333 333 333
314 314 314 314 315 315 313 308 308 314 316 315 316 316 315 315 316 316 319 321 321 321 321 321 322 324 324 324 324 322 317 318 317 317 317 316 317 316 315 316 316 315 316 315 316 316 316 317 319 321 322 321 325 338 336 327 329 333 328 326 329 327 327 330 329 328 327 327 330 328 328 333 335 333 332 331 331 336 336 333 335 335 334 333 334 335 334 334
314 314 314 314 315 315 314 309 307 311 315 316 317 315 317 320 323 323 324 322 322 324 325 324 328 329 323 321 324 320 317 318 317 316 316 316 316 316 316 316 316 316 315 316 317 316 316 318 321 323 322 320 324 332 333 331 330 330 327 327 329 326 328 333 329 327 327 326 328 328 328 334 335 332 333 332 331 336 337 333 334 335 334 334 334 335 334 334
315 314 314 314 315 315 314 310 307 309 314 317 317 320 328 333 336 336 328 324 324 325 327 325 327 328 323 321 319 317 318 317 316 316 316 317 315 316 317 316 316 317 316 318 317 316 318 320 320 322 322 321 324 324 325 328 326 325 324 325 329 327 326 329 327 326 326 327 329 327 327 332 333 332 334 332 330 334 336 334 334 334 334 334 335 335 334 334
315 314 314 314 315 315 313 310 308 308 311 315 317 325 334 331 330 331 327 326 325 322 323 323 323 323 323 321 315 316 317 316 316 316 316 316 316 316 317 317 316 316 317 317 317 319 322 321 319 320 322 318 318 319 320 322 321 321 323 324 325 325 325 326 326 326 325 327 329 326 325 328 330 333 333 332 331 332 334 335 334 334 334 334 334 334 334 334
315 315 314 314 315 314 312 310 309 307 309 312 317 325 330 325 323 324 325 329 328 323 323 323 322 322 321 319 316 317 317 317 318 317 317 316 316 317 317 317 316 317 318 314 319 327 324 322 320 316 317 317 316 317 318 321 322 321 322 323 323 325 326 323 323 326 323 325 329 326 325 325 325 331 333 332 333 331 330 333 333 333 334 333 333 333 334 335
316 315 315 314 315 313 310 310 307 307 310 313 317 324 325 322 324 324 325 331 331 328 327 326 324 322 320 317 317 318 317 319 319 317 318 315 316 318 317 317 316 316 317 312 321 327 319 318 322 317 315 317 317 316 316 321 322 322 325 325 321 322 323 321 322 324 321 323 326 323 325 327 323 327 334 332 331 332 329 330 331 332 334 333 332 333 334 334
316 316 314 314 314 312 309 309 309 311 313 313 317 323 322 322 326 325 329 335 334 330 327 325 322 319 318 316 316 319 318 318 318 317 317 316 316 317 316 317 317 316 316 315 320 323 317 316 319 317 316 316 315 317 320 321 318 319 324 323 319 319 321 322 322 323 322 322 325 323 326 334 330 328 335 334 330 332 332 331 332 332 333 332 332 333 334 333
316 315 314 314 313 310 308 312 315 314 313 315 317 321 322 325 325 325 333 338 336 335 326 317 319 319 318 317 316 317 318 317 317 316 315 316 316 316 317 317 317 317 316 315 317 319 317 316 317 315 317 317 315 317 318 318 319 319 320 318 317 318 320 322 322 325 326 323 326 326 323 334 340 331 331 333 333 335 334 333 333 332 332 332 333 335 335 334
316 316 314 314 312 308 309 316 317 313 315 318 320 323 325 326 326 325 335 342 340 336 324 315 319 319 318 319 316 317 320 319 318 316 315 317 315 316 320 318 318 318 316 319 322 320 317 316 317 317 317 318 318 317 315 318 322 319 318 317 317 317 318 320 320 323 327 325 326 329 324 329 339 333 327 330 334 337 335 333 334 333 333 333 333 334 334 334
317 316 314 314 312 310 313 316 315 313 317 321 321 325 324 326 326 324 334 339 334 326 320 320 320 319 320 319 317 322 321 319 320 318 315 317 316 316 318 318 320 317 316 325 324 319 319 318 319 319 318 319 317 316 316 322 322 315 316 318 317 318 316 318 320 320 327 329 328 336 334 329 331 330 327 329 334 335 334 333 332 332 331 332 332 333 334 333
317 315 314 314 311 314 319 319 314 314 317 321 321 321 323 326 327 330 337 333 326 321 322 323 319 318 321 319 318 323 322 319 322 321 316 316 316 317 317 317 319 316 316 324 320 317 319 319 318 319 319 318 316 315 316 321 320 316 319 317 316 318 314 318 322 321 327 326 327 336 334 326 332 334 327 327 334 333 333 333 331 331 330 330 331 331 333 333
317 315 314 313 311 316 321 318 317 318 320 322 320 319 323 326 329 340 342 330 322 322 325 324 322 321 321 320 319 321 320 320 322 323 318 316 316 316 317 317 317 315 316 321 320 317 317 319 319 319 320 318 315 318 317 316 318 318 317 315 317 318 316 321 321 323 331 327 326 334 330 323 331 336 325 324 333 334 331 331 330 330 330 330 331 330 332 333
316 314 313 313 312 316 318 317 320 322 322 322 321 321 325 332 341 344 337 329 327 327 325 325 324 322 322 323 326 324 320 319 321 321 316 316 316 315 317 316 317 321 323 326 326 320 318 319 320 319 320 319 316 317 316 315 316 317 316 318 324 326 329 337 334 332 335 329 329 333 329 323 325 331 328 325 334 334 329 330 330 331 331 330 331 330 331 333
315 313 313 312 312 314 315 320 323 322 322 321 322 328 334 341 348 346 334 327 333 334 332 333 329 323 322 324 329 328 322 320 320 317 316 319 318 318 321 319 324 331 329 331 330 323 319 318 318 319 319 317 316 318 317 317 317 316 322 323 321 326 335 341 341 338 330 327 334 331 322 320 321 328 331 327 330 329 327 330 332 332 332 331 332 331 330 331
314 313 313 312 313 312 314 323 324 321 321 319 325 341 348 340 339 343 337 327 335 339 335 335 333 327 323 325 328 325 323 325 321 316 318 320 315 320 327 323 327 328 320 323 327 324 324 321 317 318 318 315 317 320 319 322 323 319 326 328 321 326 332 329 330 332 326 324 328 325 317 317 322 331 333 327 328 328 327 329 331 333 333 332 333 331 330 331
313 313 314 313 313 311 313 320 321 321 320 320 333 351 354 341 333 338 337 331 336 338 331 331 333 332 327 327 331 327 324 324 321 317 317 319 320 325 327 321 323 323 317 321 324 324 328 326 319 318 321 319 319 321 317 318 321 315 321 329 326 328 328 322 324 327 327 327 326 322 319 318 324 333 333 330 329 328 328 328 329 332 333 333 333 332 331 332
312 313 315 317 316 313 313 315 320 324 319 324 344 350 344 339 335 333 332 333 337 334 331 331 333 337 332 329 332 328 325 326 321 319 320 326 331 329 324 319 318 324 331 330 323 321 323 325 325 321 322 322 319 320 316 315 319 315 319 327 325 325 322 319 324 323 321 326 327 321 318 319 322 325 326 328 329 326 327 329 330 332 332 333 333 333 333 333
312 314 317 321 320 316 314 314 321 324 320 334 355 350 338 334 334 334 329 331 334 332 335 334 330 337 337 337 336 323 322 328 324 325 328 328 328 325 323 320 316 323 335 330 320 319 320 322 328 322 318 321 319 319 319 319 322 320 320 323 318 321 328 327 327 326 323 325 328 323 319 321 324 322 323 326 325 326 328 331 333 334 334 333 334 334 333 333
313 316 320 325 326 323 317 318 323 322 325 346 355 347 345 339 334 334 330 329 330 330 339 339 333 335 333 337 339 324 320 327 327 330 330 324 323 323 321 318 316 320 327 326 320 320 320 322 327 321 318 322 318 318 319 317 323 325 320 319 316 319 334 333 326 332 333 327 328 328 320 322 326 322 324 326 324 327 330 332 334 334 334 334 334 333 333 332
318 320 322 325 328 326 323 326 327 322 333 353 349 343 348 341 330 331 331 331 330 332 342 338 331 329 327 331 337 329 321 325 329 327 323 324 325 322 320 319 317 318 322 325 322 320 320 322 326 321 319 322 317 321 326 318 321 324 317 319 323 323 334 336 329 336 338 327 328 330 319 320 324 320 324 327 325 327 329 331 333 333 333 333 333 332 331 331
323 325 326 327 326 327 328 328 324 327 343 355 349 345 344 334 327 330 332 332 332 339 344 335 328 328 326 327 331 328 322 324 328 324 321 327 326 320 320 321 319 319 322 325 326 325 324 323 327 326 321 323 322 325 330 325 320 320 316 320 325 322 326 331 329 331 330 324 328 330 322 319 319 318 322 326 326 328 329 330 332 332 332 332 331 331 330 330
324 331 337 331 324 325 325 321 325 340 350 350 345 343 336 327 325 329 334 333 334 341 340 330 329 331 328 327 326 326 325 323 324 324 323 326 327 322 321 321 320 320 323 326 327 330 330 323 326 332 322 321 328 327 324 327 325 321 322 325 328 325 320 322 327 326 325 326 327 328 328 325 323 324 324 322 325 328 328 330 332 331 331 330 329 330 330 330
324 336 342 330 322 325 322 320 333 348 347 343 344 341 329 325 324 326 333 333 331 335 334 330 331 331 330 332 328 326 327 325 324 326 325 326 326 323 321 322 321 320 325 330 327 331 338 327 324 333 328 323 327 323 318 325 326 326 329 328 329 329 323 325 330 326 327 332 328 328 331 331 329 328 324 322 325 327 327 329 330 328 329 329 329 329 329 329
324 339 344 328 320 323 322 324 336 345 341 340 342 336 328 327 326 326 331 333 329 329 331 333 332 330 331 333 329 325 329 330 327 326 326 328 328 326 324 322 319 322 334 339 331 330 335 330 325 330 331 327 326 323 321 323 325 329 331 327 327 330 330 332 333 331 333 334 331 330 332 335 334 326 323 326 325 324 327 329 331 331 329 329 330 330 329 329
330 342 342 326 318 321 330 336 338 339 339 339 338 332 328 330 329 326 327 329 328 327 332 333 330 330 330 329 327 327 330 330 326 325 327 327 327 326 325 324 323 329 340 338 329 329 336 337 331 328 327 325 323 322 321 324 328 331 330 332 334 334 336 336 333 334 334 332 334 333 329 337 341 329 326 329 327 327 331 334 336 333 329 330 329 329 328 327
336 341 337 325 319 325 339 344 338 338 343 343 338 330 328 331 331 328 327 328 329 330 332 331 328 329 327 325 327 328 329 328 324 325 326 325 324 324 325 329 331 335 339 333 328 331 338 337 332 333 337 335 330 327 324 327 334 331 330 337 335 329 335 341 339 336 331 330 336 333 328 340 347 334 328 329 329 330 331 337 340 334 332 331 327 327 329 328
330 334 339 331 321 326 340 343 338 342 347 342 333 328 330 335 334 331 329 329 331 332 331 329 327 327 325 325 327 326 327 327 324 324 325 324 324 323 327 331 330 332 334 331 329 329 331 332 335 339 341 339 337 336 330 328 330 329 331 335 331 326 331 337 338 336 333 331 333 331 334 345 348 339 334 333 334 331 328 333 336 335 337 334 330 331 332 330
327 333 337 332 324 326 338 344 343 344 342 338 335 332 332 334 332 331 329 326 327 330 331 328 325 326 327 328 329 326 327 329 328 328 328 327 325 322 325 329 329 330 329 331 339 337 330 335 342 342 338 336 335 333 328 326 328 332 334 334 331 327 327 331 332 331 333 334 332 331 336 340 340 339 337 336 337 332 330 331 329 329 335 335 334 335 333 334
331 338 336 329 326 327 332 341 342 336 335 341 341 334 334 334 329 328 328 326 326 329 331 328 325 328 332 332 331 328 328 330 331 332 330 329 327 323 325 328 329 330 331 336 347 347 336 336 343 344 343 341 335 331 329 327 327 329 331 332 333 331 331 334 331 330 336 336 332 336 337 330 332 338 335 337 339 332 331 337 333 330 332 331 333 335 334 336
331 342 339 327 327 329 328 333 335 332 337 346 338 330 337 336 328 327 326 324 326 329 333 331 327 330 331 332 335 333 331 332 331 330 330 329 328 326 328 329 328 332 337 336 342 349 342 335 334 335 337 336 333 332 331 328 326 326 326 328 333 335 333 329 326 331 336 331 332 346 342 327 330 337 333 336 340 331 327 337 339 333 331 331 333 334 332 332
333 342 339 327 329 334 329 331 337 336 340 345 337 333 339 335 330 330 325 326 329 332 337 334 331 334 331 332 338 336 336 338 334 332 331 329 330 332 333 329 327 334 338 333 338 348 343 333 328 328 332 336 336 333 330 329 327 327 328 329 331 333 330 325 327 333 332 326 333 345 338 327 334 340 337 338 338 330 324 329 332 329 330 331 330 327 326 327
334 338 337 331 333 338 337 338 341 339 343 349 341 335 339 337 333 331 329 334 333 331 337 337 333 335 331 333 341 338 336 339 336 334 333 329 331 334 333 331 331 336 338 333 335 340 338 335 332 329 332 338 339 333 329 329 329 327 328 330 331 332 331 328 329 333 332 328 332 336 332 332 339 341 341 341 338 332 327 328 331 328 327 328 327 327 327 326
332 334 335 334 338 345 341 336 339 337 338 347 341 333 337 338 334 329 331 336 333 329 337 338 333 333 332 334 340 336 334 334 332 331 329 328 333 334 329 329 331 333 334 331 331 332 330 333 336 333 333 339 341 335 330 328 326 325 329 333 333 332 332 332 329 330 330 330 334 336 332 335 343 343 340 335 332 331 329 329 330 328 326 328 328 328 327 326
327 327 327 329 339 348 337 332 341 338 331 341 343 335 336 337 332 328 328 331 332 333 337 335 333 336 337 336 335 331 330 331 327 327 326 325 330 331 329 330 329 328 330 330 330 333 329 330 335 334 331 336 339 334 332 331 326 326 333 337 333 330 330 331 330 327 326 328 334 335 329 331 341 340 333 330 330 329 329 330 328 325 326 328 329 329 327 327
325 325 326 327 335 342 334 330 340 338 333 343 345 336 335 335 333 333 331 327 328 333 338 339 340 339 336 335 332 326 326 326 323 325 325 323 325 325 325 329 326 324 329 329 330 336 335 333 336 332 328 335 339 333 331 333 329 333 339 332 325 328 330 330 330 330 329 328 329 332 331 332 336 332 327 329 331 328 327 329 328 326 328 329 329 329 327 328
Wind_Speed
14 13 12 11 11 10 9 8 7 6 4 3 3 3 4 5 6 7 8 9 9 10 11 12 13 14 14 15 15 14 14 9 7 5 5 6 7 8 6 4 2 2 2 2 3 2 4 5 7 8 6 5 1 3 3 2 1 3 2 2 3 2 3 3 4 6 5 5 5 4 5 7 6 4 4 7 12 12 14 13 11 13 10 13 17 19 16 13
14 13 13 12 12 11 10 8 7 6 4 3 3 4 5 6 7 8 9 9 9 10 11 12 13 14 15 16 15 14 12 8 6 6 9 9 7 6 4 4 3 2 3 4 4 2 2 4 6 7 1 1 2 2 3 3 1 2 2 4 2 3 2 1 6 7 5 6 6 6 6 6 4 3 4 6 8 9 14 12 10 9 5 10 16 19 20 17
14 14 13 12 12 12 11 9 7 6 5 4 4 5 6 6 7 8 9 9 10 10 11 12 13 15 16 17 15 12 10 6 4 6 8 6 4 5 4 4 4 3 6 6 6 4 3 6 8 7 1 2 3 1 2 3 1 1 3 5 1 5 5 3 7 6 5 7 7 6 8 8 4 4 5 8 9 9 12 9 6 6 5 7 9 14 17 15
15 13 13 12 12 13 12 9 7 6 5 4 5 5 6 7 8 8 9 9 10 10 11 12 13 15 16 17 15 10 7 5 2 5 5 3 4 4 4 4 4 5 7 8 8 7 7 8 7 4 2 3 4 1 2 3 0 1 4 6 4 7 7 4 5 6 6 6 6 6 10 11 6 4 5 8 9 7 7 6 6 9 8 8 7 9 10 10
15 14 13 13 12 13 12 9 7 6 6 5 5 6 7 7 8 9 9 9 10 10 11 12 14 15 16 17 12 7 5 4 3 6 5 5 4 4 4 3 4 6 8 10 9 8 7 5 4 3 3 3 3 1 4 4 3 3 5 9 8 8 9 6 7 7 6 6 5 6 9 9 6 8 7 9 8 5 4 4 5 6 5 6 7 7 7 7
16 14 13 13 13 13 12 10 8 7 6 6 6 7 7 8 9 9 9 9 9 10 11 12 13 15 17 16 9 4 3 1 5 6 5 6 4 4 3 3 5 7 9 10 11 9 7 3 3 1 1 3 4 4 5 1 7 6 4 6 6 7 10 7 6 6 5 7 6 6 7 8 11 10 10 13 11 6 4 6 8 3 1 5 7 6 7 8
17 15 14 13 13 13 12 10 9 8 7 6 6 7 7 8 9 9 9 9 9 11 11 12 13 14 17 14 6 3 3 3 7 6 6 6 5 4 3 5 8 9 11 9 7 4 2 3 3 1 1 3 3 2 2 8 11 9 4 4 6 7 9 6 5 6 6 8 6 8 9 8 14 10 8 13 12 9 5 7 8 2 4 6 5 5 6 6
18 17 15 14 13 12 13 11 10 9 8 7 7 7 8 8 9 9 9 9 10 11 11 13 13 13 15 10 3 3 1 4 7 8 7 6 5 4 5 9 10 11 12 9 7 5 2 2 5 2 1 2 0 5 8 11 10 9 6 4 6 6 7 7 7 9 8 7 7 13 13 11 14 10 7 10 12 12 10 9 8 7 7 6 4 4 4 6
21 19 17 15 13 13 12 12 11 10 9 8 7 7 8 8 9 10 10 11 11 11 12 13 13 13 13 6 2 3 3 4 6 8 6 6 4 4 8 10 10 10 10 10 10 7 2 2 5 2 2 2 2 6 8 9 4 5 7 5 6 5 6 7 7 8 7 4 9 15 14 12 12 9 7 7 9 10 11 9 8 9 9 7 5 4 4 6
22 21 19 17 15 13 12 12 11 11 10 8 7 7 8 8 9 10 12 12 12 12 12 12 12 12 10 4 4 3 5 6 8 7 5 5 4 6 10 10 12 12 10 11 8 6 6 5 4 2 3 2 3 3 7 10 6 7 10 7 7 6 4 6 6 7 7 4 9 14 11 8 5 4 4 4 7 8 10 8 7 9 9 7 6 3 6 7
24 23 21 18 16 14 12 12 11 11 10 9 8 8 8 8 10 11 12 13 14 13 12 11 12 12 7 2 3 1 7 9 10 8 7 6 6 8 9 8 11 12 10 9 10 5 4 5 2 2 1 2 3 5 7 10 10 10 12 8 6 6 4 5 6 5 5 3 6 11 8 3 3 3 6 7 7 8 10 8 6 7 7 7 6 4 6 8
26 24 23 20 17 15 12 11 11 10 10 9 8 8 9 9 10 12 13 14 14 13 12 12 11 10 6 1 3 4 8 11 9 7 8 7 6 8 7 6 8 12 10 7 12 13 10 8 6 5 1 2 3 5 5 7 10 10 11 9 4 5 3 2 2 2 4 2 5 9 7 4 4 3 8 7 6 7 9 8 5 6 6 5 6 5 4 8
26 25 24 21 18 16 13 12 10 10 9 9 8 8 9 10 11 12 14 14 14 13 12 11 10 8 5 1 5 4 9 14 9 8 10 7 6 8 9 9 9 13 15 10 11 12 10 11 8 4 1 4 2 1 4 3 6 6 6 7 3 3 3 3 1 4 5 1 3 5 4 4 5 1 5 5 6 8 9 6 6 5 5 4 4 4 3 6
26 25 25 23 20 16 14 12 11 10 9 9 9 9 9 10 11 11 13 14 13 12 10 10 10 5 2 3 9 7 8 15 12 13 12 12 12 11 12 13 12 16 17 14 12 10 11 13 9 4 2 4 2 1 4 4 3 3 4 3 2 3 2 6 1 5 4 2 1 6 3 4 5 6 4 5 7 8 9 6 5 4 3 4 2 3 3 3
25 25 25 24 21 18 15 13 12 11 10 11 11 11 11 12 12 12 13 14 14 12 10 9 7 2 2 6 9 5 6 11 15 18 14 16 16 12 15 18 18 18 13 12 12 9 9 10 6 2 2 3 3 5 4 4 4 4 3 2 3 2 2 6 3 3 4 2 0 7 3 3 5 8 6 5 6 6 9 6 4 4 3 4 3 3 3 3
25 25 25 25 24 20 15 13 12 12 12 12 14 13 13 14 14 13 14 15 15 13 9 4 1 1 1 5 7 4 6 9 13 19 16 17 18 15 16 15 16 17 13 10 10 8 6 4 2 1 2 4 5 5 4 4 4 3 3 1 2 2 1 3 4 1 5 2 1 4 4 2 4 8 7 5 6 6 8 6 5 5 4 5 4 4 4 5
25 26 26 25 25 22 17 13 12 13 12 13 15 16 14 15 15 14 14 15 13 11 5 1 1 2 1 6 6 3 7 10 13 16 17 18 19 18 12 4 5 11 12 10 7 4 3 2 0 1 2 3 3 5 5 3 4 4 2 1 3 3 2 0 2 3 4 5 2 3 5 4 5 8 8 6 6 6 7 7 6 6 6 6 5 5 5 6
26 26 26 25 25 24 18 13 12 12 13 14 16 17 16 15 16 15 13 10 7 4 3 1 2 3 2 6 6 4 6 10 11 13 15 14 15 16 11 4 1 2 3 4 4 2 1 2 2 2 3 3 2 4 4 3 4 3 2 2 2 2 4 3 3 3 5 5 4 4 3 5 5 7 8 6 6 6 7 7 7 7 7 6 6 6 6 6
26 27 27 25 25 24 19 14 12 12 14 14 14 15 14 13 11 10 7 2 1 1 1 2 2 2 1 5 7 6 7 10 7 8 12 10 9 9 8 6 1 2 1 1 3 2 1 3 3 2 0 2 3 5 6 6 7 7 6 4 3 3 2 4 4 5 8 5 4 6 4 5 6 7 8 7 6 6 6 6 5 5 5 4 5 6 7 7
26 27 27 26 26 25 19 14 12 13 14 14 14 11 6 5 4 4 3 1 4 5 4 4 4 3 3 5 5 4 7 9 5 5 10 10 6 3 3 2 2 3 1 2 3 2 3 4 2 3 5 7 8 7 8 7 7 6 4 4 5 4 2 4 5 7 8 5 4 7 5 6 9 9 9 8 6 6 6 6 5 5 5 5 6 7 8 7
26 27 28 27 27 24 18 14 13 12 13 13 13 7 1 2 2 2 4 3 5 7 8 9 8 7 10 9 6 6 3 3 3 4 8 10 5 2 4 1 1 2 3 5 3 2 5 4 4 7 8 8 8 6 6 7 5 4 5 5 3 3 3 4 7 9 9 5 5 6 5 7 10 10 9 9 8 8 9 9 8 8 8 8 7 8 8 6
26 27 28 28 27 23 17 13 12 12 13 13 9 1 2 4 2 2 2 3 7 5 7 10 8 9 14 12 7 6 3 2 5 6 7 6 3 2 3 1 1 4 4 3 1 4 5 1 7 8 5 2 4 3 6 7 5 4 4 5 3 3 2 2 5 8 8 4 4 6 7 7 8 9 9 11 10 9 10 11 11 11 10 9 8 8 8 7
25 26 28 28 27 23 15 12 12 11 11 11 7 4 5 7 5 6 3 0 6 6 5 6 6 6 8 6 4 5 3 1 4 5 5 3 2 4 3 2 4 5 2 4 4 3 3 4 8 6 0 3 5 5 5 4 3 4 3 5 3 4 2 1 4 7 9 5 2 7 6 4 3 6 8 11 9 6 9 10 9 10 10 10 10 8 8 9
25 27 28 29 28 20 14 13 8 6 10 11 11 9 7 6 5 6 3 1 4 6 5 4 4 3 2 2 2 4 2 2 3 3 4 2 1 2 2 2 3 3 1 5 6 6 3 7 4 2 4 3 3 5 6 5 3 1 2 5 4 5 5 4 2 5 5 2 1 7 2 4 1 6 6 7 5 5 8 9 8 8 8 7 7 6 7 9
25 27 27 29 27 19 14 9 3 6 13 11 9 9 4 3 4 3 2 2 3 5 5 3 1 0 1 2 2 3 1 1 3 3 2 2 1 1 1 2 0 4 4 4 8 5 2 4 2 6 7 6 5 5 4 5 4 2 2 3 4 6 6 4 3 4 2 4 2 6 4 5 2 4 7 6 5 6 6 8 11 10 6 5 5 6 6 7
25 26 27 28 26 18 10 3 4 12 12 4 5 8 5 3 5 1 3 4 2 5 4 2 1 2 4 2 2 3 5 2 6 2 1 1 1 3 1 3 2 2 5 2 5 3 0 3 6 7 8 9 7 5 1 4 6 2 3 4 1 4 3 5 6 4 2 2 4 3 5 3 5 0 7 8 8 7 5 7 11 9 6 6 5 6 6 7
25 26 27 27 24 17 7 2 9 11 4 4 10 10 6 6 6 1 3 5 3 4 3 2 1 2 2 3 2 5 3 3 5 4 1 3 1 3 2 3 2 3 4 2 3 1 1 4 8 7 7 7 5 4 2 4 7 1 6 3 4 5 4 4 8 4 3 2 3 3 5 2 3 3 5 9 8 6 6 9 9 8 8 7 6 6 6 8
25 26 27 25 21 14 7 7 11 8 4 9 13 10 7 6 4 2 5 3 1 3 2 2 2 1 2 2 2 3 3 3 1 4 2 2 1 4 3 3 1 5 5 5 3 3 1 2 4 6 6 4 1 4 6 3 5 5 5 1 3 3 2 2 5 4 2 3 4 5 3 4 3 4 2 7 7 6 9 12 10 8 8 8 7 6 6 7
25 25 26 25 19 10 7 9 8 7 10 13 13 11 10 5 3 3 5 2 2 2 1 1 3 4 2 2 1 0 1 1 2 4 2 0 1 4 2 4 1 4 6 5 5 3 1 2 5 7 5 2 2 7 6 2 2 5 1 3 4 3 2 1 3 3 3 5 2 6 1 4 3 4 3 5 4 7 10 10 9 8 8 8 8 6 6 6
24 24 25 24 16 8 9 9 5 8 13 14 13 11 9 4 4 5 3 0 2 2 1 1 2 3 2 3 3 3 1 0 1 1 2 1 3 4 1 2 3 3 5 4 2 3 2 2 2 4 4 4 4 5 4 2 2 0 5 4 4 5 4 3 3 3 4 3 5 7 3 5 1 4 4 4 4 8 8 5 6 7 8 8 7 6 6 6
24 24 24 22 14 8 8 6 5 8 12 15 15 8 4 4 5 5 0 3 2 2 2 2 2 3 1 1 2 2 1 2 1 2 2 3 4 5 4 4 4 4 5 6 4 3 3 2 2 1 1 3 2 3 5 5 4 5 4 3 3 4 5 5 5 5 5 2 6 5 2 5 2 4 5 5 5 8 10 8 9 10 9 9 7 6 6 6
24 23 21 16 10 8 7 4 5 7 11 16 14 5 4 4 3 1 2 2 2 2 1 2 3 3 1 2 1 1 1 2 2 2 2 0 1 2 0 1 2 4 4 3 3 4 3 1 2 2 1 4 5 4 6 7 7 6 4 5 4 3 4 4 4 3 2 4 6 4 1 2 3 5 6 4 2 7 10 10 12 12 10 9 8 7 6 6
24 22 16 9 8 10 8 5 6 6 11 15 8 4 6 4 1 3 2 1 2 3 0 2 3 3 3 2 2 1 3 2 3 1 2 2 1 2 2 2 4 5 1 1 2 4 4 4 3 3 3 2 6 4 2 3 4 4 3 4 4 2 3 2 3 2 2 5 6 4 1 1 2 5 4 6 7 10 10 9 11 11 11 10 8 7 6 6
23 18 12 8 7 9 7 3 3 5 11 11 4 5 6 4 2 3 1 2 4 1 1 2 3 5 4 2 2 0 3 2 3 1 1 1 4 3 3 4 4 5 4 2 2 2 3 4 3 1 2 1 3 4 5 4 1 0 2 5 4 3 3 1 2 0 2 5 6 5 2 2 1 5 5 8 9 7 6 6 7 8 8 7 6 6 6 6
20 14 11 8 8 7 6 4 3 4 7 5 5 5 4 2 3 2 2 3 1 1 3 2 2 4 4 4 3 1 2 2 2 4 3 3 4 2 3 5 5 3 4 3 1 1 3 3 6 4 2 2 2 2 4 6 2 2 2 5 2 3 5 2 2 4 2 1 4 4 2 2 2 3 4 3 5 5 5 5 6 6 6 5 5 6 6 6
18 12 8 7 7 5 7 5 4 2 3 4 6 3 2 3 3 3 2 2 1 1 2 4 4 4 3 4 4 3 1 1 2 4 3 3 4 4 4 3 5 5 4 3 1 1 3 4 7 6 4 2 1 3 1 5 2 2 3 2 4 3 7 4 1 1 4 3 3 2 2 4 2 3 7 7 6 5 6 6 6 7 6 7 6 6 7 7
19 12 6 8 7 7 7 5 6 3 2 6 4 1 3 3 2 2 1 1 1 1 4 3 1 2 1 2 3 5 2 2 2 3 2 2 3 5 4 3 5 5 4 5 1 1 2 3 6 6 5 6 4 4 4 2 4 3 3 2 3 2 4 4 2 3 5 3 3 2 3 4 3 2 3 5 5 4 6 7 7 6 7 8 8 7 8 9
19 12 8 9 8 9 7 6 7 3 4 5 1 2 2 2 2 1 1 1 1 3 5 2 1 1 1 1 3 5 2 2 2 2 2 2 2 3 3 2 4 6 4 6 3 1 3 1 6 4 3 7 6 6 5 6 4 5 1 1 2 3 3 3 2 1 2 1 3 4 4 3 3 2 2 3 5 7 6 6 7 8 9 9 8 8 8 8
13 6 5 5 10 11 8 10 7 3 5 3 0 2 1 1 2 0 2 3 3 4 4 1 1 1 1 1 2 5 3 2 1 2 2 1 1 1 3 3 3 6 6 7 4 1 3 3 4 5 4 5 5 6 4 6 5 4 3 4 3 3 2 1 1 2 2 1 2 3 4 3 2 3 3 5 6 7 7 7 8 10 11 9 8 8 7 7
6 2 3 5 14 13 11 9 4 5 3 1 2 2 2 1 1 2 2 4 3 2 1 1 1 2 1 1 1 3 2 3 3 3 2 1 1 0 3 3 2 3 5 7 5 1 3 3 2 6 7 4 2 3 3 1 1 4 5 4 3 2 2 2 1 1 3 3 1 1 2 4 5 4 2 3 5 8 10 10 9 9 9 8 7 8 7 8
3 2 3 8 15 12 9 6 3 2 2 1 2 2 3 1 1 2 3 4 2 2 3 2 2 1 0 2 3 2 2 4 4 3 2 2 3 1 2 1 1 0 3 6 5 2 2 2 1 3 5 3 3 4 2 3 4 4 3 2 1 1 3 4 2 3 2 3 3 3 1 6 5 3 3 2 1 3 5 7 7 7 8 8 8 9 10 10
2 1 3 8 14 10 7 4 2 1 2 2 2 2 2 0 2 2 2 3 1 0 1 2 1 1 1 1 1 1 3 3 3 3 1 2 4 1 3 3 4 3 4 3 2 0 2 3 3 2 3 3 6 5 2 4 5 5 3 3 3 3 4 5 1 3 1 2 0 3 1 5 5 3 1 3 4 3 4 6 6 6 7 8 10 10 10 9
2 2 4 5 12 8 7 2 3 2 0 4 2 0 1 1 2 2 2 2 2 2 3 3 2 2 2 1 1 2 4 3 4 3 2 2 4 3 4 5 6 5 4 2 2 2 2 3 3 2 4 5 6 5 3 4 7 5 2 1 3 2 3 5 4 3 1 1 1 2 1 5 6 4 1 2 4 4 5 6 7 5 4 5 7 8 8 9
2 4 4 3 8 5 5 2 2 1 4 3 2 2 2 2 2 2 2 1 0 1 3 2 2 2 1 1 3 3 2 3 5 6 4 3 3 4 6 7 5 4 2 2 2 1 1 1 2 3 4 6 7 7 6 6 5 2 3 3 1 1 3 2 1 3 1 2 3 4 3 6 5 5 4 2 4 3 4 5 5 6 5 4 5 5 7 9
3 2 3 4 4 3 2 4 5 2 4 2 3 2 2 2 2 2 2 1 1 3 3 1 2 4 3 3 4 5 4 4 2 4 5 4 2 3 5 6 5 3 1 3 3 3 2 2 3 4 2 0 2 3 3 4 4 3 4 5 4 4 5 2 1 3 0 3 3 5 4 6 6 6 7 6 5 3 4 3 2 5 6 6 6 5 6 7
2 1 2 4 2 2 1 2 5 4 3 1 3 2 2 2 1 1 2 3 3 3 4 2 3 6 5 5 5 6 7 5 3 2 3 3 1 2 3 4 4 3 1 2 3 4 3 2 2 5 5 4 4 5 5 2 3 4 6 7 5 4 4 3 2 1 3 3 1 4 6 4 7 8 6 6 5 5 5 3 3 4 5 5 3 2 4 4
0 1 2 1 2 2 3 2 2 3 3 3 3 0 1 2 1 2 2 2 2 4 4 4 6 5 4 4 5 4 5 5 5 4 2 2 1 3 4 3 3 3 3 3 3 4 5 2 1 4 4 5 6 7 5 2 1 4 7 8 6 3 3 4 0 4 4 2 3 7 5 4 6 8 6 6 6 4 4 4 3 1 2 3 1 3 3 1
1 2 2 3 1 1 2 3 3 5 3 4 3 1 1 3 3 1 1 1 3 4 4 4 6 5 3 3 5 2 4 5 5 3 1 2 2 4 5 3 2 3 4 3 3 4 6 0 2 2 1 4 4 5 4 3 3 5 6 7 7 5 2 1 4 5 5 3 6 7 5 5 6 6 6 6 6 5 4 2 0 3 6 6 4 2 3 5
1 2 3 1 1 4 5 4 4 6 5 4 3 1 3 3 2 1 1 3 4 4 4 3 4 4 4 4 5 3 2 2 3 3 2 3 3 2 4 3 3 3 5 3 3 3 5 1 4 2 2 5 6 6 5 6 5 6 6 7 7 6 4 3 5 5 5 5 7 5 5 7 6 6 7 7 7 6 2 2 5 6 7 6 5 5 6 5
1 1 3 4 3 3 3 3 6 6 4 4 3 0 3 4 1 1 2 4 3 2 4 4 1 2 5 6 6 4 3 5 3 2 1 3 3 2 1 1 2 5 5 3 1 2 4 2 3 3 3 5 6 6 6 5 4 5 7 8 6 5 5 3 3 2 2 3 3 2 1 5 5 5 6 5 2 3 5 6 6 5 6 7 6 5 5 4
4 5 4 1 2 4 1 2 5 6 3 2 3 2 2 4 4 4 5 3 5 4 3 5 4 3 5 6 7 3 3 4 3 3 3 1 2 3 2 3 2 4 4 1 0 2 3 1 1 4 3 5 5 5 6 6 6 6 6 7 6 4 3 3 4 2 2 2 3 5 2 4 6 4 4 5 3 4 6 6 5 4 5 7 7 5 5 4
7 7 4 1 1 4 1 3 4 5 3 3 3 3 2 4 5 7 5 4 3 5 5 7 6 4 4 5 4 0 3 2 3 5 5 3 4 4 4 5 3 2 2 1 0 1 4 3 0 3 1 5 5 3 4 5 7 6 4 4 6 5 4 4 5 3 2 3 3 1 3 6 5 4 4 5 4 3 5 5 4 4 4 5 5 5 5 2
Wind_Direction
9 9 9 10 10 7 5 1 356 351 350 337 312 303 303 309 315 320 325 329 336 341 347 348 347 345 346 347 344 340 339 333 314 299 281 287 288 290 275 249 262 270 278 298 290 316 330 320 300 299 296 303 261 231 282 235 179 91 120 111 114 133 141 178 157 156 161 162 163 136 88 104 123 118 112 67 62 73 76 68 62 59 70 107 116 117 120 128
9 8 8 9 8 6 4 358 351 347 340 326 303 294 295 303 310 314 319 326 337 343 346 346 345 343 344 347 343 339 339 329 319 295 278 287 284 264 232 225 227 241 283 295 309 347 350 305 311 331 321 243 273 243 287 280 137 135 127 84 136 159 133 114 129 148 156 155 148 121 105 102 119 130 115 92 85 87 87 76 67 73 97 115 116 120 127 134
9 8 7 7 6 5 3 357 350 341 331 317 294 289 292 299 304 309 317 326 339 343 344 344 343 342 344 345 340 337 335 335 333 296 286 276 229 212 204 229 245 282 298 294 305 305 269 278 307 329 321 245 273 273 302 293 321 196 110 70 79 120 114 118 129 144 140 140 138 122 103 83 72 106 108 105 99 96 100 98 97 116 135 115 106 116 128 138
8 8 6 7 6 4 3 359 351 337 327 308 292 288 287 295 300 306 317 329 339 340 340 343 341 341 344 341 336 334 339 6 334 285 290 252 205 212 217 243 270 293 296 292 294 287 276 271 267 250 197 262 263 203 241 245 347 335 92 103 140 124 115 132 132 119 114 124 130 127 103 86 68 74 101 108 97 84 87 95 137 151 151 137 130 125 132 137
8 8 6 7 7 4 3 2 353 339 327 307 293 285 286 294 299 307 318 329 334 334 336 339 338 340 343 340 335 326 355 36 293 278 268 248 236 229 223 244 278 283 288 295 299 304 304 270 227 194 172 247 259 191 235 221 117 48 69 112 141 138 128 149 149 126 132 125 106 95 90 96 80 50 58 83 84 79 67 56 103 141 153 140 133 125 131 132
8 7 7 7 7 6 4 3 357 346 330 313 297 286 289 294 299 309 315 324 326 326 331 334 336 340 341 342 337 330 39 93 269 266 246 248 246 242 237 251 272 280 284 293 303 320 330 342 21 353 230 259 243 225 257 195 105 85 66 102 121 133 129 145 142 122 132 110 97 87 83 98 89 65 56 70 71 74 77 66 71 59 105 122 123 132 150 150
9 7 7 7 8 6 4 4 1 351 336 320 304 291 292 296 302 307 308 316 316 319 327 330 336 342 342 342 341 16 89 232 262 241 241 260 255 251 251 264 273 275 275 282 292 307 317 333 341 268 235 294 267 248 41 79 96 101 102 105 98 106 112 122 118 102 101 98 100 94 88 85 91 89 73 82 94 104 106 88 90 137 149 139 148 154 155 136
10 8 6 6 7 6 4 4 0 355 344 325 309 297 293 297 302 301 304 309 308 317 324 329 338 345 346 345 352 20 43 249 249 220 232 253 254 262 264 272 276 268 265 260 240 220 186 248 259 235 114 261 280 79 95 89 79 93 117 129 101 98 107 111 107 97 91 94 96 88 84 83 97 109 101 107 123 130 138 124 135 168 150 149 138 112 108 104
11 8 6 5 4 4 2 1 360 356 347 330 313 301 294 296 300 299 302 303 306 316 322 330 338 345 350 351 65 20 284 231 208 200 212 234 242 269 271 274 278 273 273 271 249 227 187 215 238 224 133 196 88 84 108 97 69 109 122 127 110 106 111 104 99 103 100 95 99 96 98 110 120 114 89 118 137 134 138 137 156 157 138 137 108 89 116 119
12 8 5 2 1 1 359 357 356 353 349 336 317 305 297 297 299 299 300 302 308 315 323 332 335 343 357 13 65 22 258 200 177 175 176 210 235 266 273 278 281 274 272 288 274 199 191 224 252 223 158 124 56 51 89 105 131 134 115 113 114 111 103 95 99 108 102 92 108 113 120 135 149 104 93 159 161 139 131 135 160 143 126 127 112 116 130 116
16 9 4 0 358 356 354 353 350 349 349 339 324 309 301 299 299 300 300 305 309 317 326 331 333 339 350 74 93 250 227 184 170 164 164 193 228 256 272 287 289 279 271 300 309 291 269 276 330 78 140 88 80 49 74 119 134 128 115 103 97 94 75 91 108 115 101 85 117 115 106 79 0 63 139 170 169 150 129 134 153 128 120 124 123 137 129 115
18 13 5 359 355 352 350 347 343 343 342 339 329 312 305 301 301 302 302 306 310 319 324 324 331 333 338 106 181 225 204 182 173 174 183 198 235 253 269 283 284 281 278 298 305 309 323 323 10 56 43 111 102 66 95 137 127 126 118 107 102 82 68 86 108 113 94 104 150 111 71 1 344 91 139 148 157 145 122 131 143 123 123 125 132 143 128 125
14 13 9 1 353 350 346 342 338 334 331 331 325 316 311 303 305 306 305 307 311 318 320 322 325 327 352 265 271 289 201 194 191 204 209 212 248 264 270 273 270 274 275 273 284 298 304 313 3 31 341 87 90 85 116 121 114 123 103 107 117 46 14 304 63 88 75 67 187 106 60 305 295 213 148 147 159 137 122 142 148 137 133 124 141 139 121 139
9 10 8 4 355 348 343 338 333 326 321 318 315 315 313 309 311 310 309 310 312 319 322 324 320 322 48 258 295 321 211 202 205 215 218 217 232 258 269 270 268 268 269 261 267 287 295 311 356 18 351 85 140 72 60 21 45 73 55 75 76 73 291 301 4 99 81 283 200 89 109 239 261 252 198 176 181 144 134 156 153 147 133 122 144 134 128 155
5 4 5 4 358 349 341 336 327 321 314 306 304 307 310 311 308 309 312 311 312 316 319 324 313 312 30 297 304 318 198 191 207 217 220 220 223 241 258 260 263 264 260 249 255 279 299 317 347 29 2 18 67 65 33 359 11 41 54 326 348 94 250 307 315 123 118 242 47 85 123 228 241 244 223 189 201 158 138 153 148 142 136 132 150 148 148 161
2 0 0 1 359 352 341 332 325 318 309 299 299 301 304 304 299 303 306 306 309 309 311 329 325 93 50 296 317 316 202 189 214 223 224 230 228 235 251 259 258 251 247 249 253 270 300 333 340 140 88 25 61 83 48 20 356 2 97 221 287 125 169 320 310 244 129 143 340 92 134 211 236 232 225 198 202 173 134 139 147 148 164 161 165 172 168 168
0 357 356 357 357 352 342 331 321 314 305 298 298 296 296 297 294 294 296 298 301 301 302 262 124 78 278 281 311 300 215 207 223 230 231 239 239 242 258 284 240 233 245 265 265 272 320 13 36 9 75 65 73 89 60 19 307 317 56 165 244 168 138 185 287 277 139 141 215 133 143 215 214 196 207 203 191 173 138 144 163 170 183 180 173 175 173 170
358 355 353 352 353 352 344 331 320 312 304 301 303 299 295 293 288 285 286 286 290 314 329 264 113 73 302 280 266 242 223 215 224 234 235 238 237 242 259 276 244 253 282 293 287 270 340 12 48 26 40 64 47 84 95 230 221 220 192 177 252 149 117 166 207 226 171 165 196 164 180 233 198 171 194 206 188 178 159 159 178 188 188 181 167 168 173 172
356 353 350 348 349 350 344 330 321 313 307 309 312 306 299 296 288 280 275 242 182 13 318 231 147 126 241 262 252 246 220 208 217 234 229 227 229 241 251 250 270 48 46 296 291 248 134 24 24 33 55 185 203 158 169 204 186 192 193 149 166 157 147 194 198 204 177 166 199 187 191 202 180 177 188 193 187 183 173 162 179 198 197 188 168 168 175 175
353 350 347 345 346 346 342 331 324 318 315 320 326 326 322 331 338 313 300 171 185 211 229 230 207 214 267 274 248 214 205 207 215 234 228 221 216 270 286 254 19 55 142 214 267 267 96 58 300 221 205 211 216 196 190 203 182 172 160 137 158 157 209 208 188 200 176 156 222 204 182 175 184 192 186 179 175 180 182 174 184 193 199 206 188 175 176 176
350 346 344 343 342 343 340 332 326 320 316 321 332 348 5 329 10 334 318 305 256 225 230 243 230 239 266 262 209 171 184 237 252 266 256 233 196 3 312 270 26 342 243 210 242 327 84 100 235 214 200 212 221 183 167 193 174 128 146 162 161 160 221 210 182 192 176 167 226 202 180 192 194 193 181 169 171 187 191 185 190 195 200 207 199 186 176 161
347 344 341 340 340 340 338 334 325 317 319 322 328 332 253 293 300 323 343 312 295 267 243 255 242 245 257 248 207 159 98 1 294 289 265 239 147 151 265 319 184 244 259 228 267 16 63 150 236 230 209 236 296 61 115 177 162 93 133 141 147 194 242 249 196 188 174 186 233 186 192 219 199 184 181 180 185 195 194 191 193 193 198 202 200 195 174 147
344 341 340 339 339 338 336 332 322 323 336 332 313 252 281 319 329 335 5 242 296 290 261 262 244 243 252 238 187 138 117 208 274 278 238 199 106 175 197 319 241 234 263 216 196 93 76 244 238 244 19 49 318 359 77 163 142 80 114 117 155 191 144 219 227 197 185 196 179 155 189 252 166 157 187 195 195 199 200 203 203 197 199 201 197 190 174 160
341 340 340 339 338 338 336 331 327 342 343 325 298 278 292 321 327 340 21 140 297 290 266 255 232 208 223 247 161 140 157 204 203 244 226 161 90 183 154 268 264 319 331 167 152 121 161 238 234 9 30 73 305 347 58 102 88 1 181 132 156 183 189 221 213 182 197 273 101 120 88 312 134 149 192 203 193 199 202 204 214 220 215 204 190 176 174 171
339 339 339 340 339 337 338 339 355 341 327 309 292 296 314 327 315 346 71 61 319 294 294 293 300 98 287 335 119 150 100 301 227 208 210 167 154 54 22 268 345 339 320 116 113 107 174 251 39 42 26 37 25 15 57 117 103 344 262 177 167 161 192 214 106 95 53 333 259 117 74 304 290 154 178 181 178 196 205 203 210 221 220 203 189 176 169 170
336 337 338 341 339 338 344 355 339 332 324 317 341 346 6 352 325 343 106 52 340 289 309 322 1 6 320 314 143 93 53 306 262 241 160 168 136 98 42 320 29 314 284 125 110 109 342 350 49 61 48 39 32 30 37 131 102 35 270 248 289 83 125 167 137 115 104 250 260 105 113 255 312 250 177 170 174 195 213 220 218 218 217 214 204 184 167 164
333 336 337 339 341 342 344 319 328 333 330 345 351 355 3 348 335 28 84 39 353 285 296 293 342 26 303 257 153 83 71 256 292 323 179 158 78 75 50 317 353 308 286 83 57 290 246 23 48 67 65 51 26 360 283 131 101 248 248 261 351 14 16 140 146 164 186 207 320 26 99 126 315 295 185 158 157 188 221 230 231 226 223 226 216 193 173 169
331 335 334 336 340 337 330 332 331 339 355 338 337 334 328 330 329 57 85 66 312 288 283 286 326 297 260 284 88 113 200 209 20 307 238 159 351 57 42 267 211 307 316 90 91 261 222 59 83 93 76 71 41 275 255 120 101 244 242 29 351 326 306 124 130 158 154 72 343 318 58 89 284 292 140 138 148 193 221 226 229 226 225 227 222 205 175 167
329 333 332 333 334 326 327 335 332 347 348 337 332 316 300 313 355 60 83 92 278 297 300 351 326 288 307 19 26 218 244 128 143 259 273 124 311 76 97 247 179 329 328 96 139 234 242 181 157 118 91 109 234 253 258 81 140 244 285 23 347 318 279 12 85 117 72 56 296 269 86 101 277 285 124 128 168 205 216 225 227 226 225 225 223 206 175 163
327 331 332 330 326 317 318 320 335 356 346 336 326 308 296 324 47 62 56 234 252 266 279 356 309 289 9 29 328 324 1 282 213 291 350 344 346 40 55 282 60 36 343 39 96 241 263 226 158 113 132 175 214 255 284 306 245 60 36 15 0 355 352 16 36 79 64 13 265 250 188 128 270 280 180 174 209 195 188 209 226 225 225 225 224 206 177 167
325 329 330 325 315 301 301 311 342 344 340 335 325 317 333 4 69 83 127 231 255 306 324 333 306 304 328 140 304 322 356 308 346 82 354 340 3 10 15 6 33 47 10 4 358 313 336 18 341 320 138 129 83 357 345 342 1 58 54 40 33 346 357 19 357 37 65 296 260 255 195 128 141 263 228 228 228 177 165 183 202 206 212 215 215 204 183 173
325 328 327 318 296 269 263 295 333 326 333 334 329 353 64 40 45 111 228 272 295 284 305 268 275 313 285 172 243 298 53 333 319 124 166 282 355 302 51 158 137 49 3 327 338 338 2 6 267 281 29 85 78 26 358 359 19 43 46 61 65 349 7 24 337 16 78 261 262 270 346 123 192 242 226 215 204 175 172 184 190 190 198 206 207 200 185 172
326 329 327 310 276 259 254 291 328 332 332 331 341 48 77 73 31 226 220 342 241 228 349 263 277 359 36 28 313 316 44 340 276 213 171 165 43 301 257 197 132 97 112 226 15 4 356 323 324 19 348 44 102 87 20 347 11 36 48 85 97 75 53 6 301 359 338 279 279 292 354 133 283 281 230 164 170 191 185 180 183 183 188 198 200 188 178 177
329 331 326 305 278 262 247 269 312 329 331 336 27 59 63 83 219 202 130 246 223 240 321 273 313 10 32 357 268 221 49 292 245 107 77 67 44 354 324 0 48 96 114 80 50 62 44 320 305 46 298 299 108 146 162 153 101 105 146 115 112 136 126 182 234 113 291 283 299 328 25 131 240 294 245 173 169 185 173 160 169 175 179 185 186 173 174 184
332 329 317 300 283 259 222 213 247 303 326 357 64 64 84 144 240 138 115 252 220 5 309 309 26 33 5 322 283 219 121 253 293 48 41 53 60 355 342 10 16 61 92 74 328 63 65 274 261 270 255 136 94 238 159 108 69 270 128 84 41 181 142 115 173 181 209 316 314 326 352 212 211 318 331 104 122 118 119 133 150 162 165 160 172 183 186 191
335 329 312 290 278 233 189 189 213 269 335 63 67 57 155 204 220 153 181 231 140 94 350 0 34 54 354 322 306 308 90 101 356 41 34 70 72 4 353 31 16 31 92 117 200 28 49 287 287 328 349 60 52 299 50 99 148 298 39 40 270 186 126 103 338 334 54 59 303 311 356 313 329 15 3 33 76 109 126 144 161 169 167 168 188 196 192 196
339 336 312 284 266 208 196 217 218 227 38 78 89 182 213 228 217 166 194 163 141 90 79 50 1 67 356 315 312 312 4 24 2 55 35 38 47 343 340 39 29 31 105 127 139 183 111 282 301 5 4 318 332 8 13 60 118 86 24 280 271 36 78 98 78 1 34 56 292 341 10 331 21 38 346 55 99 165 169 161 167 173 175 185 197 199 199 201
336 335 308 275 232 194 201 210 196 184 65 72 93 236 214 246 268 121 106 90 55 54 80 108 215 122 118 29 315 309 22 37 333 50 67 36 36 339 344 18 23 21 64 98 79 346 95 347 299 348 358 313 345 42 3 339 50 101 157 259 78 60 15 28 72 20 20 14 308 330 337 340 42 349 284 125 164 205 194 173 172 180 191 197 199 200 204 203
332 341 317 247 183 174 174 171 163 93 59 68 298 273 219 222 297 349 125 93 65 70 76 133 203 84 71 105 295 311 23 71 314 56 87 63 75 32 8 14 30 19 32 80 95 303 77 89 286 302 329 330 4 41 2 320 357 52 48 12 45 121 129 56 95 141 126 50 317 336 345 331 281 257 210 169 197 201 183 187 193 193 197 198 195 195 198 198
336 25 310 183 159 162 162 153 114 62 71 166 187 235 260 199 305 331 75 84 75 94 112 235 56 52 333 342 311 309 22 41 18 50 79 64 101 39 350 14 61 24 30 61 77 32 53 80 281 300 332 7 17 352 352 267 342 41 49 26 359 8 68 75 41 59 109 116 137 46 348 290 268 264 237 163 187 194 188 192 201 206 205 201 194 190 192 198
357 26 275 170 153 160 149 115 51 93 126 261 193 229 275 193 113 1 29 66 95 175 160 147 102 101 161 18 358 331 26 33 28 49 35 36 100 159 309 36 98 19 35 42 43 48 59 72 39 316 341 5 263 294 6 132 142 115 107 101 104 90 78 80 3 321 78 123 159 138 207 269 271 291 319 8 77 203 192 179 185 204 205 201 200 195 193 197
78 16 256 168 156 156 122 90 307 139 124 263 226 215 266 329 78 48 10 30 47 337 64 83 77 87 107 94 348 17 66 42 13 60 79 59 92 94 317 32 69 79 83 56 348 270 125 95 65 320 280 253 265 290 19 107 107 96 99 119 118 101 96 110 175 274 343 25 103 118 159 262 265 264 313 44 63 129 158 162 174 199 205 200 203 203 199 201
112 276 279 180 171 156 92 60 302 10 270 250 239 51 17 40 59 57 28 26 23 3 30 32 18 64 78 97 55 61 82 61 9 37 109 57 43 2 348 36 64 67 73 67 309 319 69 70 42 316 292 298 304 315 352 59 69 59 1 50 91 66 117 145 170 174 143 328 55 80 306 264 269 278 235 99 85 122 165 177 172 195 239 230 216 210 202 207
311 272 288 228 195 165 88 142 211 300 273 277 66 46 13 46 79 56 30 25 49 70 62 14 352 47 38 32 64 49 77 83 25 14 51 59 7 344 14 38 58 65 72 164 186 43 53 64 57 43 351 340 343 345 349 4 32 40 313 328 342 11 61 93 83 77 74 245 150 128 247 254 271 308 315 348 48 93 207 210 182 192 220 224 220 222 213 212
325 267 286 281 208 138 121 185 158 159 264 326 80 73 28 39 32 41 54 42 55 93 98 331 1 48 18 14 55 30 33 82 63 5 29 48 358 341 15 32 52 69 163 191 151 92 101 140 108 101 107 294 304 311 315 323 333 339 327 325 326 356 18 9 40 75 68 245 148 140 217 260 287 311 319 333 0 346 274 257 227 215 213 201 191 203 214 215
351 278 288 318 354 62 233 207 111 127 234 104 83 38 68 92 338 11 68 40 21 69 82 5 19 46 23 26 57 30 19 49 86 68 39 34 6 315 330 359 27 46 121 119 81 80 86 66 96 129 153 180 206 237 250 273 323 321 314 314 319 351 31 70 76 104 196 188 192 212 209 246 287 291 301 313 315 303 294 277 250 234 220 204 185 217 239 236
352 250 195 184 343 337 292 315 86 158 211 136 113 319 145 119 36 5 33 56 68 71 64 24 28 49 30 39 66 29 4 27 50 69 62 17 330 306 315 338 25 57 105 77 33 83 87 25 37 134 166 203 207 231 260 295 306 298 307 303 292 311 45 72 347 241 185 126 282 253 199 193 263 270 274 281 274 270 289 286 267 229 127 127 77 341 314 289
212 249 212 168 185 222 234 258 202 170 154 111 108 124 127 91 82 95 316 44 58 59 77 30 17 45 59 78 100 51 3 24 23 15 1 340 338 345 346 339 357 57 91 44 355 93 104 161 232 142 293 273 253 263 299 350 327 308 314 298 280 295 7 36 253 227 166 163 252 247 209 211 249 260 256 251 237 240 277 299 248 98 101 116 125 104 73 70
275 288 294 349 141 202 202 199 159 130 110 100 82 76 127 105 99 210 205 76 35 21 86 88 357 18 53 72 104 85 42 64 9 319 314 356 356 11 5 332 317 12 65 47 347 80 100 221 223 145 356 318 307 310 348 14 347 326 321 296 279 291 303 270 249 226 183 207 244 246 243 251 249 231 230 228 214 219 229 108 112 109 108 115 115 102 89 91
21 313 306 357 351 257 215 139 120 111 91 84 81 51 131 111 111 305 31 94 119 17 62 109 154 41 62 68 85 94 167 158 152 250 265 20 354 337 350 252 277 341 23 57 341 46 80 253 236 112 45 318 302 318 354 11 343 322 310 294 291 314 328 302 253 240 203 255 297 32 325 278 265 230 234 248 223 140 124 120 121 124 123 114 98 84 82 88
298 287 280 324 309 297 326 98 111 115 99 85 129 185 133 127 144 109 37 40 129 129 117 136 130 54 50 64 74 83 221 176 162 243 235 207 237 231 234 231 252 333 342 9 13 57 91 254 296 73 52 291 287 332 345 350 356 344 316 311 321 326 321 282 258 228 172 195 24 45 39 278 275 277 285 298 353 88 126 134 122 124 119 107 101 85 75 88
329 308 300 126 254 295 21 95 84 110 159 192 165 159 145 168 158 112 75 9 62 116 146 141 117 74 56 60 63 216 250 246 253 262 251 241 257 245 233 249 245 221 227 197 127 138 133 140 144 94 97 271 279 332 357 14 12 340 287 315 332 308 288 300 303 292 218 161 110 103 230 239 257 294 318 310 336 88 142 155 129 122 104 89 97 86 69 103